This is the latest recevied weather packets stored in our database for station/object KI6AOK. If no packets are shown the sender has not sent any weather packets the latest 10 day(s).
| Time | Temp. | Humidity | Pressure | Rain* | Wind** | Luminosity | Snow |
|---|---|---|---|---|---|---|---|
| 1777994378 | 14.44° C | 84% | 1014.2 hPa | 0 mm | - | 117 W/m² | - |
| 1777994074 | 14.44° C | 86% | 1014.3 hPa | 0 mm | - | 139 W/m² | - |
| 1777993771 | 15° C | 85% | 1014.2 hPa | 0 mm | - | 221 W/m² | - |
| 1777993468 | 14.44° C | 88% | 1014.1 hPa | 0 mm | - | 283 W/m² | - |
| 1777993168 | 13.89° C | 89% | 1014.2 hPa | 0 mm | - | 202 W/m² | - |
| 1777992866 | 13.89° C | 90% | 1014.1 hPa | 0 mm | - | 167 W/m² | - |
| 1777992564 | 13.89° C | 91% | 1014 hPa | 0 mm | - | 118 W/m² | - |
| 1777992262 | 13.33° C | 90% | 1013.9 hPa | 0 mm | - | 106 W/m² | - |
| 1777991959 | 13.33° C | 91% | 1013.9 hPa | 0 mm | - | 93 W/m² | - |
| 1777991656 | 13.33° C | 92% | 1013.9 hPa | 0 mm | - | 80 W/m² | - |
| 1777991353 | 13.33° C | 92% | 1014 hPa | 0 mm | - | 122 W/m² | - |
| 1777991051 | 13.33° C | 93% | 1013.9 hPa | 0 mm | - | 94 W/m² | - |
| 1777990747 | 13.33° C | 94% | 1014 hPa | 0 mm | - | 71 W/m² | - |
| 1777990445 | 12.78° C | 94% | 1013.9 hPa | 0 mm | - | 48 W/m² | - |
| 1777989838 | 12.78° C | 94% | 1013.7 hPa | 0 mm | - | 52 W/m² | - |
| 1777989535 | 12.78° C | 94% | 1013.7 hPa | 0 mm | - | 42 W/m² | - |
| 1777989231 | 12.78° C | 94% | 1013.8 hPa | 0 mm | - | 23 W/m² | - |
| 1777988927 | 12.78° C | 94% | 1013.7 hPa | 0 mm | - | 26 W/m² | - |
| 1777988624 | 12.78° C | 94% | 1013.6 hPa | 0 mm | - | 20 W/m² | - |
| 1777988321 | 12.78° C | 94% | 1013.7 hPa | 0 mm | - | 16 W/m² | - |
| 1777988018 | 12.78° C | 94% | 1013.5 hPa | 0 mm | - | 14 W/m² | - |
| 1777987713 | 12.22° C | 94% | 1013.7 hPa | 0 mm | - | 10 W/m² | - |
| 1777987411 | 12.22° C | 94% | 1013.6 hPa | 0 mm | - | 8 W/m² | - |
| 1777987108 | 12.22° C | 94% | 1013.3 hPa | 0 mm | - | 8 W/m² | - |
| 1777986805 | 12.22° C | 93% | 1013.4 hPa | 0 mm | - | 6 W/m² | - |
* Rain latest hour (hover to see other rain measurements)
** Current wind speed in m/s (hover to see current wind gust speed)